Вернуться в каталог

STARLINK-37602

АктивенСвязьVLEO
NORAD 69358·PAYLOAD·🇺🇸 United States

Запущен Jun 4, 2026 с Cape Canaveral Space Force Station

Loading…

Ближайшие Пролёты (ближайшие 24 часа)

TLE

СвежийSource: CelesTrak SupGP

Эпоха: Sep 15, 2026, 03:40 UTC

1 69358C 26123F   26258.15326389  .00011577  00000+0  34212-3 0  2588
2 69358  53.1592 167.0027 0001291  80.0742 345.6722 15.34379045    16

Отслеживайте STARLINK-37602 в реальном времени с AllMySat

Download on the App Store